samedi 22 Avr 17
10 : 00

8 eme Edition Millevaches Monédières Raidlight Trail

3 trails permettent de découvrir les contreforts du Massif Central en passant par le massif des Monédières jusque sur le Plateau de Millevache

45 km 2100 m D+ à 10 H départ Treignac
21 km 800 m D+, à 13 H départ Pradines
10 km 200 m D+, à 14 H départ Bugeat
Marche Nordique sur les 21 et 10 km (sans clessement)
9 km Rando casse-croute départ 11H de Bugeat

mail organisation => fdesproges@orange.fr
Tel => 0670726061

challenge => Haute correze

courses enfants => non

remises des prix => 3 au scratch – 0 par catégorie
Championnat de la Corrèze de course de trail

autres résultats

point de controle peyrat 24km

chpt 19 21 km

regional 45 km

 

 

 






Informations :

ClDosNomVoirTempsS.Cat.CC.ClubFFA
11249BREUIL Olivier01:48:33 MSE1KM 19 BRANCEILLES
21178PRADELOU Gregory01:50:02 MV11
31065DARRIN Sebastien01:50:45 MSE2LIMOGES ATHLE*
41119GODIN Kevin01:54:19 MSE3
51105GALIANA Alexandre01:54:19 MSE4
61074DEMARET Jonathan01:54:20 MSE5S/L ES USSEL
71127ITSWEIRE Bertrand01:54:20 MV21S/L UNION PERPIGNAN ATHLE 66
81188ROCHE Cyrille01:56:18 MV12
91210THONAT Guillaume01:58:20 MSE6
101250PLAZE Bastien02:01:41 MSE7S/L TULLE AC
111172PERS Mathieu02:02:09 MSE8
121243ABDESSELAM Alain02:02:22 MV13
131213TRAVERSE Nicolas02:02:58 MSE9S/L ES USSEL
141162NIORD Julien02:03:27 MSE10mbda sport athletisme
151134LAFON Guillaume02:04:19 MSE11
161107GANNAC Sylvain02:05:58 MV14
171091DUPUY Guillaume02:05:59 MSE12running saint maixent
181239MAUZAT Stephanie02:06:16 FV11RUNNING CLUB ARPAJON
191238DUNAUD Frederic02:06:43 MV15LIMOGES ATHLE*
201061COURBET Benjamin02:06:59 MSE13team trail again
211215TWARDOWSKI Frederic02:07:02 MV22
221014BARBANCHON Christophe02:07:24 MV16
231200SALAUN-LACOSTE Jerome02:08:04 MSE14BRIVE LIMOUSIN TRIATHLON
241225VIGIER Marine02:08:34 FSE1S/L PERIGUEUX RUNNING
251222VERGNAUD Bastien02:08:34 MSE15S/L PERIGUEUX RUNNING
261026BONNIN Armand02:08:45 MES1
271187ROBERT Florian02:08:57 MSE16
281233LAMOUREUX Quentin02:09:27 MSE17
291130JEANNOT Benjamin02:10:01 MSE18S/L ES USSEL
301177POULET Remy02:10:15 MSE19
311002AGIER Mallyck02:11:04 MSE20
321086DUCHEMIN Raphael02:11:29 MV17
331196ROUX Adrien02:11:58 MSE21
341164OLIVIER Benjamin02:12:09 MSE22mbda sport athletisme
351129JAKOPIC Steve02:12:09 MSE23MBDA SPORT ATHLETISME
361266GAYOT Lionel02:12:21 MV18
371192ROUBY Julien02:12:57 MSE24raid'oc 24
381044CAULIER Mathieu02:13:05 MV19CO-KM 42 ST JUST LE MARTEL
391051CHOPINAUD Antoine02:13:13 MSE25
401078DETAIX Vincent02:13:16 MSE26les muscles du plateau
411197ROUX Bernard02:14:00 MV110
421093DURAND Quentin02:14:25 MSE27
431248TWARDOWSKI Victor02:15:09 MES2team tri 87
441037BUISSON Jerome02:18:39 MV111
451102FERRIER Cedric02:18:51 MSE28team trail again
461056CLERET Pascal02:20:37 MV112verneuil oxygene
471202SALVANT Gerard02:20:41 MV31fcs uzerche nature passion
481133KRAMP Jeremy02:20:45 MSE29
491112GAUTHIER Sebastien02:20:47 MSE30
501148MAISONNEUVE Anthony02:21:43 MSE31
511227WARGNIER Jerome02:22:20 MV113VTT MONTAGRIER
521232LANCKRIET François02:22:56 MSE32
531169PELLERIN Mickael02:23:01 MSE33verneuil oxygene
541149MANO Denis02:23:11 MV23
551175PINASSAUD Delphine02:23:43 FV12ENTENTE POITIERS ATHLE 86
561221VERGE Marc02:23:45 MV24marc verge
571094DUSSOUCHAUD Christian02:23:48 MV32
581140LE LEM Patrice02:24:13 MV25
591098FAURE Sebastien02:24:26 MSE34
601121GOUIN Christophe02:25:27 MV26lencloitre j.c 86
611100FERENC Thomas02:25:29 MSE35
621080DIDIOT Gilles02:25:54 MV33
631128JACQUET Eddie02:26:01 MV114
641101FERMON Servais02:26:15 MV115
651012AUTIER Nicolas02:26:16 MSE36raidoc 24
661042CARPENTIER Franck02:26:38 MSE37les muscles du plateau
671152MAZAUD Elodie02:26:39 FSE2S/L CA BRIVE
681204SEGRETAIN Patrick02:26:54 MV116
691068DE LAUNAY Yves02:27:33 MSE38
701118GODIN Josiane02:27:38 FV21
711198RUBY Florian02:28:04 MJU1les muscles du plateau
721066DAVAN Fabrice02:28:36 MV117
731176POUCH Christophe02:29:12 MV27
741242AJUSTE Jean philippe02:29:15 MSE39
751020BESOMBES Florent02:29:23 MSE40
761117GIRAUD Julien02:29:24 MSE41limoges mud-run club
771111GAULTIER Jean-louis02:29:30 MV28les muscles du plateau
781182RAFFAILLAC Benoit02:29:44 MSE42
791099FAURIE Nicolas02:29:45 MSE43
801199SABAT Dominique02:29:55 MSE44
811203SAMMUT Philippe02:29:57 MSE45lencloitre j.c 86
821082DIF Romain02:30:58 MSE46
831274VALBON Ludovic02:31:16 MV118
841257WAN MEENEN Pierre02:31:51 MV119limoges mud-run club
851027BOUCHERON Franck02:31:51 MV120limoges mud-run club
861120GORSE Florian02:32:07 MSE47
871211TOUILLIEZ Loic02:32:12 MSE48
881013AYMARD Remi02:32:24 MSE49US RENAUDINE ATHLE CROSS
891095EMAZABEL Jonathan02:32:31 MSE50
901256LONGY Xavier02:32:47 MV121
911108GARCIA Richard02:32:48 MV122
921190ROLAZ Alexis02:33:03 MSE51la bise au chat
931185RIDOUARD Mathieu02:33:05 MSE52S/L ES USSEL
941079DIAZ Diego02:33:08 MSE53
951154MEILHAC Didier02:33:57 MV123
961247VARIERAS Charles02:34:05 MSE54
971214TUDAL Michel02:34:21 MV29
981246AUBY Morgane02:34:22 FSE3
991034BRUNEAU LEMERCIER Pierre02:34:28 MSE55
1001145LETANG Philippe02:35:45 MV124
1011155MENDY William02:35:50 MV125ASC SAINT-BARTHELEMY
1021047CHARRIEU Yannick02:36:23 MSE56limoges mud-run club
1031146MACQUART Ellie02:36:28 FSE4les muscles du plateau
1041244DUPONT Dominique02:36:57 MV210
1051195ROUVEIX Laurent02:37:09 MSE57
1061237GARCIA Emmanuel02:37:29 MV126
1071272GUILLET Mathilde02:38:08 FSE5
1081165PAIRAT Stephane02:38:09 MV127limoges mud-run club
1091201SALIN Alexandre02:38:31 MSE58la bise au chat
1101209THOMAS Laurent02:39:42 MSE59
1111030BOURNAIX Jean pierre02:39:42 MV211
1121263FIALIP Fabrice02:39:51 MV128DORDOGNE ANIMATIONS
1131084DOUAY Helene02:39:54 FV22ASC SAINT-BARTHELEMY
1141261BARTEL Clement02:41:11 MSE60
1151260DUMAS Flavien02:41:11 MSE61
1161255PAINTEAUX Benoit02:41:28 MSE62team trail haute correze
1171173PEUCH Yannick02:41:29 MSE63
1181071DEGORTES Julien02:42:24 MSE64VERNEUIL OXYGENE
1191231GILBANK Pascale02:42:24 FV23
1201251PAQUET Christophe02:42:48 MV129
1211017BEDEL-DAUSSY Edith02:42:52 FV24MBDA SPORT ATHLETISME
1221015BARNETT Richard02:42:57 MSE65richard barnett
1231135LARUE Gilles02:43:16 MV130la graule nature
1241083DONQUE Thierry02:43:19 MV212
1251088DUCLOUX Anne-gaelle02:43:34 FSE6EA ST QUENTIN EN YVELINES
1261050CHAUMONT Melanie02:44:31 FSE7
1271174PILLOT Clemence02:44:53 FSE8
1281023BIGET Alain02:45:11 MV213
1291205SEGRETAIN Carinne02:45:21 FV13
1301122GRENAILLE Timothee02:45:34 MSE66
1311273MANSURYAN Tigran02:45:35 MV131
1321206SIX Aurelie02:46:34 FSE9MBDA SPORT ATHLETISME
1331219VALADE Bertrand02:46:36 MV132
1341207TETE Patrick02:46:51 MV214VERNEUIL OXYGENE
1351268SIMONNEAU Yannick02:46:59 MSE67
1361184REYNIER Lionel02:47:03 MSE68
1371194ROUSSELIE Chrystele02:47:15 FV14S/L PAYS DE BRIVE ATHLETIQUE C
1381153MEDINA Fabien02:47:15 MV133
1391085DUBOIS Alain02:47:17 MV215S/L PAYS DE BRIVE ATHLETIQUE C
1401258CADIOU François02:47:29 MSE69
1411113GEORGETTE Tony02:47:29 MSE70la bise au chat
1421054CIBLAC Gabriel02:48:59 MSE71
1431057COGNARD Anthony02:49:20 MV134lencloitre j.c 86
1441143LEGROS Thomas02:49:41 MSE72
1451060COUDERT Pascale02:50:32 FV25verneuil oxygene
1461001ACIER Karine02:50:43 FV15lencloitre j.c 86
1471245AOUT Romain02:51:30 MSE73
1481267COURBET Alexandre02:52:23 MSE74les muscles du plateau
1491253SABATIER Corinne02:52:52 FV26aquaterra
1501189ROJO Thierry02:52:54 MV216pbc 47
1511259LAUMONIER Magali02:52:57 FSE10
1521049CHAUDOUARD Frederic02:52:57 MV135
1531141LEBRAUD Frederic02:53:09 MSE75
1541016BARRETEAU SAUVIAT Delphine02:53:31 FSE11S/L ATHLETISME ST PANTALEON
1551041CARPE Carine02:53:41 FSE12les godasses ambazacoises
1561005ANDRE Catherine02:54:13 FV31LOCHES 37 TRIATHLON
1571229PINLET Richard02:54:30 MV217
1581224VIDOU Ugo02:54:32 MJU2
1591191RONDEAUX Brigitte02:55:11 FV27ASC SAINT-BARTHELEMY
1601271BERLANDA Marie02:55:12 FSE13
1611159MODOLO Farid02:55:14 MV218
1621058COLL Martial02:55:59 MV219
1631208TETE Estelle02:56:26 FV16
1641223VERSTRAETE Nathalie02:56:35 FV28mbda sport athletisme
1651217UGUEN Francois02:57:01 MV34les muscles du plateau
1661064DAMET Anne02:57:03 FSE14
1671218VACHER Mathilde02:57:03 FSE15AS ROMAGNAT
1681029BOURDETTE Laura02:57:23 FSE16
1691021BEYLIER Bertrand02:57:40 MSE76
1701004ALLAIS Daovy02:57:42 FV32VERNEUIL OXYGENE
1711160MORLIERE Dominique02:57:54 MV220les godasses ambazacoises
1721167PEDIMINA Marc02:58:19 MSE77les muscles du plateau
1731150MARCAUD Nicolas02:59:05 MSE78
1741240SELLERON Bernard02:59:43 MV35
1751092DURAND Messaline02:59:45 FSE17
1761179PRIOUX Antoine02:59:49 MSE79les muscles du plateau
1771270CAPOT Yoann03:00:46 MSE80vulca raid
1781166PASSEBON Jean-luc03:01:21 MV221
1791035BUA DELOCHE Marine03:01:21 FSE18
1801090DUPONT Dalice03:02:06 FSE19LES GODASSES AMBAZACOISES
1811193ROUMIEUX Nathalie03:02:07 FV17LES GODASSES AMBAZACOISES
1821010ARLANDIS Gerard03:02:49 MV222courir a audenge
1831048CHASTENET Marie-line03:03:00 FSE20
1841254BOUCHET Mariannick03:03:35 FV29aquaterra
1851137LAURENCOT Veronique03:03:48 FV18
1861241ARTAUD Sandrine03:04:27 FV19S/L ATHLETISME ST PANTALEON
1871226VIGNERIE Patrick03:04:33 MV223VERNEUIL OXYGENE
1881123GRENAILLE Yves03:04:43 MV224
1891269RUVEN Gaetan03:05:16 MSE81BORGWARNER RUNNING CLUB
1901124GRIMAUD Aurelie03:05:16 FSE21
1911116GIMON Karine03:05:43 FV110
1921008ARCIS Jean-¨pierre03:05:54 MV225COURIR A AUDENGE
1931053CHOQUE Frederic03:06:15 MV136ASC SAINT-BARTHELEMY
1941077DESPLOBAIN Jean-philippe03:06:37 MV137
1951067DAVID Guy03:06:44 MV226ASC SAINT-BARTHELEMY
1961046CHANIOL Quentin03:07:54 MSE82les muscles du plateau
1971170PENEL Eric03:08:09 MV227S/L BUGEAT TREIGNAC ATHLETIS
1981151MARTIN Jordan03:08:27 MSE83
1991103FEYDEL Patrick03:08:30 MV36
2001052CHOQUE Manuela03:10:22 FV111ASC SAINT-BARTHELEMY
2011110GARRET Emmanuelle03:10:59 FV112
2021031BRANGIER Anne03:11:32 FV113running saint maixent
2031264JALLOT Pierre03:11:41 MV138
2041262ROULET François03:11:42 MSE84
2051072DELEAZ Jean-louis03:12:49 MV37MBDA SPORT ATHLETISME
2061147MADRONET Elise03:13:13 FSE22S/L ATHLETISME ST PANTALEON
2071109GARNAULT Damien03:13:49 MV139
2081136BUISSON Christine03:14:03 FV33
2091171PERRIAU Shene03:14:49 FSE23MBDA SPORT ATHLETISME
2101025BOBO Francois03:16:27 MV38MBDA SPORT ATHLETISME
2111220VAURY Christophe03:16:35 MV140
2121157MIKULOVIC Jacques03:17:15 MV141
2131003ALBERT-CHAMBON Celine03:17:36 FSE24VERNEUIL OXYGENE
2141252ERRECART Catherine03:20:02 FV210spiridon
2151144LEROY Jean-yves03:20:10 MV39VERNEUIL OXYGENE
2161070DEFRAIN Marie-france03:20:25 FV114
2171007AOUT Jonathan03:21:11 MSE85
2181138LAURENT Vincent03:21:55 MV228entente athletique aubusson
2191006ANDRE Beatrice03:22:10 FV115
2201158MIOMANDRE Cecile03:23:50 FSE25
2211063DALAIS Emmanuel03:25:20 MV229h24smile deaf
2221024BLATON Julien03:26:02 MSE86
2231045CAUNET Alexis03:27:41 MSE87les muscles du plateau
2241115GILLET Claire03:28:36 FSE26MBDA SPORT ATHLETISME
2251125GUILLO Jean-gael03:28:39 MSE88
2261228DUPLAN Corinne03:28:45 FV211trail entre elle
2271212TRAUMAT Thierry03:29:07 MV230VERNEUIL OXYGENE
2281039CARCONE Paul03:29:31 MV142
2291096EPOUDRY Claire03:29:49 FSE27lencloitre j.c 86
2301018BERTHELLEMY Dominique03:29:49 FV116lencloitre j.c 86
2311019BERTHELLEMY Sandrine03:29:50 FV117lencloitre j.c 86
2321032BREVET Gerard03:34:28 MV143
2331236DERONZI Amelie03:36:53 FJU1
2341235PORTE Noël03:36:53 MJU3
2351139LAURENT Nicole03:37:31 FV212
2361073DEMAILLE Isabelle03:39:21 FV118
2371132JUPIN Laurence03:39:21 FV119
2381234CALLY Joel03:39:30 MV231
2391038CACHAU Catherine03:42:55 FV213COURIR A AUDENGE
2401104FRESLON Laetitia03:44:45 FSE28
2411069DEBONNAIRE Agathe03:44:45 FSE29
2421106GALLIATH Catherine03:46:23 FV214mbda sport athletisme
2431040CARNAZZA Muriel03:53:28 FSE30
2441028BOULAIS Thierry03:58:03 MV144les muscles du plateau
2451142LECORCHE Patrice04:00:08 MV310MBDA SPORT ATHLETISME
2461033BREVET Sylvie04:08:33 FV120
2471076DESMONTS Nathalie04:52:29 FV121

(Cliquer sur les points rouge de la carte pour avoir des informations sur le parcours)

Dénivellé


21 Comments.

  • THIERRY TRAUMAT says:

    Très beau parcours avec un dénivelé qui démarre sur les chapeaux de roue. Un très bon accueil des bénévoles tout au long de la course et un soleil magnifique. Comment ont-ils fait l’an dernier pour franchir les buttes avec la pluie? Je reviendrai l’année prochaine si ma forme le permet. Un vrai trail avec de grosses pentes en montée et en descente et une deuxième partie de course un peu plus abordable (heureusement)
    Merci pour le maillot manches longues, c’est bien utile, je le porterai avec honneur

  • RUBIO noël says:

    Bravo super course et parcours ,beaucoup de gentillesse et de ferveur,grande convivialité

  • martinoli michel says:

    c’était une découverte pour moi qui suis parisien .
    une très belle course, conviviale, les bénévoles sont tous aimables et chaleureux ; meme les photographes .
    l’organisations ets excellente ; le balisage est sans problème, il a sans doute été fait ou supervisé par un coureur .
    les terrains sont bons, assez difficiles et mais trop . félicitations .

  • PENE says:

    Très belle épreuve ,bien organisée , merci aux bénévoles

  • PENE says:

    Très belle épreuve ,bien organisée , merci auxx bénévoles

  • GIZARDIN says:

    Beau parcours. Assez hard, les montées font aussi mal aux jambes que les descentes.
    Ravitos bien présents sur l ensemble du parcours.
    Bénévoles au top.
    Seul petit bémol navettes payantes et uniquement sur reservation.

  • PLANEIX says:

    Un grand moment….. Merci aux frères Desproges et à toute l’organisation.
    Nous reviendrons en force l’année prochaine. Les monédières n’ont qu’a bien se tenir…..
    Vive la CORRÈZE LIBRE !!!!!!!!!

  • GIMON says:

    Beau parcours, staff sympa et joyeux, bonne ambiance, et le beau temps.
    Superbe trail, j’ai adoré !

  • Gabriel CIBLAC says:

    Super Trail! Une première pour moi et ce fut une parfaite expérience. Je reviens l’année prochaine c’est une certitude.

  • Yves grenaille says:

    Bonsoir
    Agréable journée tres bonne organisation
    Merci à tous ces bénévoles. ….

  • crosnier says:

    Trail dur mais bien sympa.
    Merci au bénévoles

    Fabrice

  • MANO Denis says:

    Première visite en Corrèze et vraiment pas déçu, belle région, gens conviviaux, accueil chaleureux, organisation au top, lot de super qualité, repas impeccable, tracé (21km) représentatif de la région (c’est ce que je recherchais), résultats rapides, et le super temps !!! Bravo et Merci pour cette belle journée !

  • Le lem patrice says:

    Bjr, j’ai passé un Super moment sur le 21 Trail.c’etait une très belle et difficile course. Félicitations à tous les organisateur et qu’elle météo Super.
    À bientôt dans votre beau département.
    P le lem

  • Jeunet says:

    Parcours génial, grosses bosses, superbes singles en foret ! Paysages superbes. Un tarif super raisonnable, c’est très appréciable avec un super Tshirt en plus ! Des bénévoles au top et tjs présents.
    Bonne ambiance à l’arrivée sur cette jolie place de Bugeat.
    Merci !

    Olivier

  • grenaille says:

    Super journee sport avec le beau temps, un poils trop de chaleur mais on choisi pas !
    Bravo a tous les benevoles pour l’orga les ravitos et la bonne humeur !!
    A l’annee prochaine !!

  • Dupuy says:

    Trail très dur pour ma part mais normal par rapport au relief. sinon super course

  • Dupuy says:

    Super course très dur mais super relief et vue panoramique sur les sommets. Belle grimpettes..

  • Dupont says:

    Merci à tous les bénévoles. Très belle course.

  • BORIE says:

    bonjour a toutes et a tous
    je tiens a remercier toute l’équipe pour ce trail digne de ce nom……!!!! pas pour les jambes mais pour la beauté des paysages et le gentillesse des bénévoles et milles à tout le monde;
    je tiens aussi a remercier mes « partenaires de courses » de Tours. Finir à 4 c’est mieux que seule;
    bon retour sur Tours.
    grosses bises à Laurence
    a l’année prochaine

  • Feydel says:

    Super ! Un peu hard certes , mais un régal pour les yeux ( pas pour les jambes )

  • Feydel says:

    Un peu hard certes ! Mais un régal pour les yeux. ( moins pour les jambes)




Le resenti (3 choix possibles)

Loading ... Loading ...

Le parcours (4 choix possibles)

Loading ... Loading ...

Ravitaillement (3 choix possibles)

Loading ... Loading ...

Les récompenses (3 choix possibles)

Loading ... Loading ...

La météo (2 choix possibles)

Loading ... Loading ...